Inquirer Daily News

Weather

Get conditions and forecasts for any City, State, ZIP code or Country:  
Northeast Philadelphia, PA
on Friday, February 22, 2013

Friday
Previous Day Next Day
Daily Summary
 ActualAverage (KTTN)Record (KTTN)
Temperature
Mean Temperature °F 35°F  
Max Temperature 37°F 44°F 66°F (1997)
Min Temperature 23°F 27°F 8°F (1963)
Degree Days
Heating Degree Days 35 30  
Month to date heating degree days 695  
Since 1 July heating degree days 3641  
Cooling Degree Days 0 0  
Month to date cooling degree days 0  
Year to date cooling degree days 0  
Moisture
Dew Point 21°F   
Average Humidity 67    
Maximum Humidity 89    
Minimum Humidity 54    
Precipitation
Precipitation 0.00 in 0.09 in 1.84 in (2003)
Month to date precipitation 1.75  
Year to date precipitation 4.91  
Wind
Wind Speed 7 mph   
Max Wind Speed 9 mph   
Max Gust Speed mph   
Visibility 10 miles   
Events Rain   

Key: T is trace of precipitation, MM is missing value
Source: NWS Daily Summary
Time(EST)TemperatureDew PointHumidity Pressure Visibility Wind DirectionWind SpeedGust SpeedPrecipitationEvents Conditions
12:54 AM 24.1°F 14.0°F 65% 30.32 in 10.0 miles NNW 8.1 mph - N/A   Clear
1:54 AM 23.0°F 14.0°F 68% 30.34 in 10.0 miles North 5.8 mph - N/A   Clear
2:54 AM 23.0°F 14.0°F 68% 30.36 in 10.0 miles NNW 5.8 mph - N/A   Clear
3:54 AM 23.0°F 14.0°F 68% 30.36 in 10.0 miles NNW 9.2 mph - N/A   Clear
4:54 AM 24.1°F 14.0°F 65% 30.37 in 10.0 miles North 8.1 mph - N/A   Clear
5:54 AM 23.0°F 15.1°F 72% 30.40 in 10.0 miles NNW 4.6 mph - N/A   Clear
6:54 AM 24.1°F 15.1°F 69% 30.41 in 10.0 miles North 5.8 mph - N/A   Clear
7:54 AM 26.1°F 16.0°F 66% 30.43 in 10.0 miles North 8.1 mph - N/A   Clear
8:54 AM 28.0°F 17.1°F 63% 30.43 in 10.0 miles ENE 9.2 mph - N/A   Clear
9:54 AM 28.9°F 18.0°F 64% 30.40 in 10.0 miles East 6.9 mph - N/A   Clear
10:54 AM 32.0°F 19.0°F 59% 30.40 in 10.0 miles East 5.8 mph - N/A   Clear
11:54 AM 34.0°F 19.9°F 56% 30.38 in 10.0 miles East 9.2 mph - N/A   Clear
12:54 PM 35.1°F 21.0°F 57% 30.35 in 10.0 miles East 8.1 mph - N/A   Clear
1:54 PM 37.0°F 21.9°F 54% 30.34 in 10.0 miles SSE 4.6 mph - N/A   Overcast
2:54 PM 37.0°F 21.9°F 54% 30.32 in 10.0 miles SSE 5.8 mph - N/A   Overcast
3:54 PM 37.0°F 23.0°F 57% 30.33 in 10.0 miles ESE 5.8 mph - N/A   Overcast
4:54 PM 37.0°F 25.0°F 62% 30.32 in 10.0 miles SE 8.1 mph - N/A   Overcast
5:54 PM 37.0°F 26.1°F 65% 30.33 in 10.0 miles ESE 8.1 mph - N/A   Overcast
6:54 PM 36.0°F 26.1°F 67% 30.32 in 10.0 miles ESE 8.1 mph - N/A   Overcast
7:52 PM 35.6°F 26.6°F 70% 30.33 in 10.0 miles SE 6.9 mph - N/A   Overcast
7:54 PM 36.0°F 27.0°F 70% 30.33 in 10.0 miles SE 6.9 mph - N/A   Overcast
8:50 PM 35.6°F 28.4°F 75% 30.31 in 10.0 miles SE 4.6 mph - N/A   Overcast
8:54 PM 35.1°F 28.0°F 76% 30.31 in 10.0 miles SE 5.8 mph - N/A   Overcast
9:54 PM 35.1°F 28.9°F 78% 30.31 in 10.0 miles Calm Calm - N/A   Overcast
10:54 PM 34.0°F 30.9°F 89% 30.28 in 10.0 miles East 6.9 mph - 0.00 in Rain Light Rain
11:54 PM 35.1°F 32.0°F 89% 30.28 in 10.0 miles Calm Calm - 0.00 in   Overcast
Astronomy
Sunrise:06:43 AM (EST) Moon Rise:02:53 PM (EST)2/22
Sunset:05:44 PM (EST) Moon Set:04:26 AM (EST)2/22
Moon Phase
Feb. 22 Feb. 25 Mar. 04 Mar. 11 Mar. 19

Copyright © 2014 The Weather Underground, Inc.